AQI (37)

Current Conditions for Foresthill, CA. Overcast , Dry   
Visibility: 10 miles
Cloud ht: 3386 ft
Space WX Alerts: ALERT:  Electron 2MeV Integral Flux exceeded 1000pfu ( Latest Alert ) - Issue Time: 2019 Feb 14 1807 UTC

  Summary / Temperature 

Current Temperature
33.8°F
1°C
(24/hr Ago)
31.9°F
(Apparent temp)
28.1°F
Uncomfortably Cold
Wind Chill Graphs
27.0°F 
Wind Chill-Avg
34.1°F 1.2°C
 --- Virtual Temp: 34.9°F ---

 Temp Rate:

 24/hr Difference:

 Avg Running Temp:

 Todays High:

 Todays Low:

 Y-days High:

 Y-days Low:

 Todays WChill:

 Y-days WChill:

 Evapotranspiration:

-2.2°F/hr 

+1.9°F

35.0°F

41.8°F 3:00pm

26.2°F 6:51am

37.5°F 2:40pm

24.5°F 7:05am

13.2°F 3:23am

17.4°F 2:43am

0.068 in

115' Above Ground

 Temperature:

 6'AGL VRS 115'AGL:

 Avg Running Temp:

 Humidity:

 Todays High:

 Todays Low:

 Y-days High:

 Y-days Low:

40.0°F 

+6.2°F

40.4°F

0% 

48.0°F 2:40pm

35.0°F 9:02am

44.0°F 3:33pm

33.0°F 12:00am

Temp & Humidity Graphs

  Wind 

Wind Speed

 4.0 mph

Gusting to

 9.0 mph

Wind from SSE

154°  SSE

Light breeze

 Avg speed:

 Wind Run:

 Peak Gust:

  3.0 mph 

29.0 miles

  23.0 mph 3:17am

  Almanac  

Moon age: 15 days,8 hours,7 minutes,100%

Full moon
100%
Illuminated
15 days in cycle

 Moonrise:

 Moonset:

 Sunrise:

 Sunset:

 Solar Noon:

6:06pm

7:05am

6:47am

5:42pm

12:17pm

2min 31s more daylight tomorrow 

  Solar Radiation 

(Current Solar)
  No Sun Light
(Todays High)
 680 W/m2@12:10pm

Rain

 Rain Today:

 Rain Rate (/hr):

 Rain last hour:

 Rain Yesterday:

 This Month:

 Season Total:

1 Day Since Last Rain Day

0.00 in

0.000 in

0.00 in

0.00 in

9.90 in

33.36 in

Updated Time

Updated: 2/19/19  7:45pm

(Updated  sec ago)

Humidity & Barometer

 Humidity:

 Wetbulb:

 Dew Point:

 Barometer:

83% 

32.1°F 

29.2°F 

30.205 inHg 

 Baro Trend:  Steady 
Northern Calif
Preparedness
Fire 
Level 

    UV Index  

(Current UV)
0.0  None
(Todays High) @ 12:09pm
3.6   Medium

National Weather Service Forecast

Tonight

Tonight: Mostly Cloudy
Mostly Cloudy
Wednesday

Wednesday: Snow Showers
Snow Showers
Wednesday
Night
Wednesday Night: Chance Snow Showers
Chance Snow Showers
Thursday

Thursday: Mostly Sunny
Mostly Sunny
Thursday
Night
Thursday Night: Mostly Clear
Mostly Clear
Friday

Friday: Sunny
Sunny
Lo 30 °F Hi 36 °F Lo 24 °F Hi 41 °F Lo 27 °F Hi 45 °F

Foresthill Probe 2 Stats  
Foresthill Probe 2: is located on Thomas Street
at 3000 feet. The main Foresthill Weather site
is located on Melody ln at the 2860 foot elevation

Calm
32.2°F
0.1°C
Temp Rate:
-2.2°F
Calm
Gusting to
1.0 mph
(Humidity)
87%
Wind from SSE
154°  SSE
Updated: 19/02/19 - 19:41:58
 Todays High: 42.9°F 14:32
 Todays Low: 24.5°F 07:11
 Rain Today: 0.35 in
 Season Total: 35.63 in

Foresthill Wx: Monthly,Yearly, Highs and Lows 

Foresthill  
This Weather Data is coming from the main Foresthill
Weather site located on Melody ln at the 2860 foot
elevation
Not Foresthill Probe 2
Weather Data
Month
  High
Month
  Low
Year
High
Year
Low
Temp 53.7°F
2/1/19
24.5°F
2/18/19
64.1°F
1/27/19
24.5°F
2/18/19
Humidity 100%
2/2/19
41%
2/19/19
100%
1/9/19
21%
1/1/19
Heat Index 58.5°F
2/14/19
30.6°F
2/18/19
63.7°F
1/27/19
30.6°F
2/18/19
Wind Chill 53.7°F
2/1/19
11.5°F
2/11/19
64.1°F
1/27/19
11.5°F
2/11/19
Wind Gust 47 mph
2/12/19
0 mph
2/1/19
47 mph
2/12/19
0 mph
1/1/19
Barometer 30.41 in
2/7/19
29.37 in
2/14/19
30.54 in
1/23/19
29.37 in
2/14/19
ET 0.07 in
2/19/19
0.00 in
2/1/19
0.09 in
1/27/19
0.00 in
1/1/19
Dew Point 51.0°F
2/14/19
17.0°F
2/19/19
53.2°F
1/19/19
7.7°F
1/1/19
Pacific Satellite US Radar Satellite Imagery Sacramento,CA.  (click to enlarge)
NWS Weather Forecast - Summary
Updated: Tuesday, February 19, 2019 - 3:30pm PST
Current Interstate Highway Conditions for I-80 & US-50

[I 80: IN THE SAN FRANCISCO BAY AREA - SOLANO CO]
no traffic restrictions are reported for this area.

[I 80: IN THE NORTHERN CALIFORNIA AREA & SIERRA NEVADA]
no traffic restrictions are reported for this area.

[US 50: IN THE SACRAMENTO VALLEY & THE LAKE TAHOE BASIN]
no traffic restrictions are reported for this area.
NWS Weather Forecast: Tonight and Wednesday (Updated: Tue, 19-Feb-2019 2:15pm PST)
Tonight

Tonight: Mostly Cloudy
Mostly Cloudy

Lo 30 °F
NWS forecast: A chance of snow showers after 4am. Mostly cloudy, with a low around 30. East southeast wind around 5 mph. Chance of precipitation is 40%. Little or no snow accumulation expected.
Wednesday

Wednesday: Snow Showers
Snow Showers

Hi 36 °F
NWS forecast: Snow showers. Mostly cloudy, with a high near 36. South southwest wind around 6 mph. Chance of precipitation is 80%. New snow accumulation of 1 to 2 inches possible.
YR.NO 10 Day Weather forecast
Last update: 02/19/2019 @ 11:56
Next update: 02/20/2019 @ 00:00
Provided by: 22
      Temperature Precipitation Pressure Wind  
Today
02/19/2019
18:00 00:00 30°F   30.17 inHg Light breeze from south 4 mph
    (Click to enlarge)
meteogram

    Forecast for next 9 days

      Temperature Precip Pressure Wind  
Wednesday
02/20/2019
00:00 06:00 27°F   30.11 inHg Light breeze from east 6 mph
  06:00 12:00 28°F 0.07 in 30.01 inHg Light breeze from south-southeast 5 mph
  12:00 18:00 34°F 0.11 in 29.94 inHg Light breeze from south-southwest 5 mph
  18:00 00:00 28°F   29.81 inHg Light air from east 2 mph
      Temperature Precip Pressure Wind  
Thursday
02/21/2019
00:00 06:00 23°F   29.77 inHg Light air from east-northeast 3 mph
  06:00 12:00 18°F   29.72 inHg Light breeze from east-northeast 7 mph
  12:00 18:00 39°F   29.73 inHg Light breeze from northeast 5 mph
  18:00 00:00 28°F   29.83 inHg Light breeze from north-northeast 6 mph
      Temperature Precip Pressure Wind  
Friday
02/22/2019
00:00 06:00 27°F   29.96 inHg Gentle breeze from east-northeast 11 mph
  04:00 10:00 25°F   30.02 inHg Light breeze from northeast 5 mph
  10:00 16:00 36°F   30.09 inHg Light air from northeast 2 mph
  16:00 22:00 37°F   30.10 inHg Light breeze from west-southwest 4 mph
  22:00 04:00 21°F   30.22 inHg Light breeze from east-northeast 4 mph
      Temperature Precip Pressure Wind  
Saturday
02/23/2019
04:00 10:00 16°F   30.25 inHg Light breeze from east-northeast 5 mph
  10:00 16:00 36°F   30.32 inHg Light air from south-southeast 3 mph
  16:00 22:00 37°F 0.15 in 30.27 inHg Light air from south-southwest 3 mph
  22:00 04:00 34°F 0.18 in 30.30 inHg Light breeze from southeast 6 mph
      Temperature Precip Pressure Wind  
Sunday
02/24/2019
04:00 10:00 32°F 0.14 in 30.24 inHg Light breeze from southeast 6 mph
  10:00 16:00 34°F 0.35 in 30.21 inHg Gentle breeze from south 8 mph
  16:00 22:00 34°F 0.23 in 30.13 inHg Gentle breeze from south-southeast 8 mph
  22:00 04:00 34°F   30.14 inHg Light breeze from southeast 6 mph
      Temperature Precip Pressure Wind  
Monday
02/25/2019
04:00 10:00 32°F   30.16 inHg Light air from east 3 mph
  10:00 16:00 39°F   30.22 inHg Light breeze from south-southeast 6 mph
  16:00 22:00 39°F   30.20 inHg Light air from south-southwest 3 mph
  22:00 04:00 27°F   30.28 inHg Light breeze from east-northeast 5 mph
      Temperature Precip Pressure Wind  
Tuesday
02/26/2019
04:00 10:00 27°F   30.28 inHg Light breeze from east 6 mph
  10:00 16:00 43°F   30.33 inHg Light air from south-southeast 3 mph
  16:00 22:00 45°F   30.31 inHg Light air from west-southwest 3 mph
  22:00 04:00 28°F   30.32 inHg Light breeze from east-northeast 6 mph
      Temperature Precip Pressure Wind  
Wednesday
02/27/2019
04:00 10:00 28°F   30.27 inHg Light breeze from east-northeast 5 mph
  10:00 16:00 55°F   30.26 inHg Light air from east-southeast 1 mph
  16:00 22:00 55°F   30.21 inHg Light air from west-southwest 3 mph
  22:00 04:00 32°F   30.25 inHg Light breeze from east-northeast 6 mph
      Temperature Precip Pressure Wind  
Thursday
02/28/2019
04:00 10:00 30°F   30.19 inHg Light breeze from east-northeast 5 mph
  10:00 16:00 55°F   30.20 inHg Light air from east 2 mph
  16:00 22:00 50°F   30.15 inHg Light air from west 3 mph
  22:00 04:00 34°F   30.13 inHg Light breeze from east-northeast 4 mph

NOAA Local Storm Report
1 MILE WEST OF DONNER PEAK   ( More )
DATE
02/18/2019
TIME
7:52 AM
COUNTY
PLACER
STATE
CA
GEOGRAPHIC
39.31N 120.33W
SOURCE
PUBLIC
SNOW MEASURED AT 8.0 INCH
8 inches of new snow was reported at sugar bowl ski resort this morning.
How Close Are We To this Month's Temperature Record ?
Updated Tuesday, Feb 19, 2019- 7:40:00 PM

Current Temperature: 33.8°F

February's High: Temperature Record 70.3°F - Set on Sun, Feb 7, 2016 - 2:27:00 PM
We are currently 36.5°F Less than this Month's record High

February's Low: Temperature Record 21.9°F - Set on Fri, Feb 23, 2018 - 6:14:00 AM
We are currently 11.9°F More than this Month's record Low

Weather History For Tuesday, February 19, 2019


On this Day - In Weather History ...
Data courtesy of weatherforyou.com
powered by Cumulus v1.9.3 (1059)
Ambient Weather VWS v14.00
Top Contact Website Map Copyright © 2007 - 2019 Foresthillweather.com Never base important decisions on this or any weather information obtained from the Internet